GW6121 Weather Reports


time (UTC)temp
F
wind
direction
speed
knots
gust
knots
rain 1hr
in
rain 24hr
in
rain mn
in
humidity
%
barometer
mb
20260507183130 62 360 1.7 0.0 0.00 0.00 0.01 75 1010.8
20260507181621 63 153 2.6 0.0 0.00 0.00 0.01 74 1010.7
20260507180021 63 152 3.5 0.0 0.00 0.00 0.01 73 1010.6
20260507174515 63 159 5.2 0.0 0.00 0.00 0.01 72 1010.7
20260507173140 64 184 4.3 0.0 0.00 0.00 0.01 71 1010.8
20260507171633 64 148 4.3 0.0 0.00 0.00 0.01 70 1010.8
20260507170118 64 130 5.2 0.0 0.00 0.00 0.01 69 1010.8
20260507164528 65 126 5.2 0.0 0.00 0.00 0.01 67 1010.8
20260507163007 65 132 7.0 0.0 0.00 0.00 0.01 66 1010.8
20260507161639 66 143 6.1 0.0 0.00 0.00 0.01 63 1011.1
20260507160121 66 128 6.1 0.0 0.00 0.00 0.01 59 1010.9
20260507154613 66 136 6.1 0.0 0.00 0.00 0.01 58 1010.8
20260507153103 67 90 5.2 0.0 0.00 0.00 0.01 56 1010.7
20260507151514 67 149 6.1 0.0 0.00 0.00 0.01 56 1010.7
20260507150002 66 123 6.1 0.0 0.00 0.00 0.01 56 1010.7
20260507144639 66 113 6.1 0.0 0.00 0.00 0.01 56 1010.7
20260507143118 66 126 7.0 0.0 0.00 0.00 0.01 57 1010.8
20260507141620 66 57 7.8 0.0 0.00 0.00 0.01 57 1011.0
20260507140010 66 120 7.8 0.0 0.00 0.00 0.01 57 1011.2
20260507134644 66 132 7.8 0.0 0.00 0.00 0.01 58 1011.3
20260507133133 66 121 7.8 0.0 0.00 0.00 0.01 56 1011.6
20260507131616 66 113 8.7 0.0 0.00 0.00 0.01 58 1011.9
20260507130027 65 156 9.6 0.0 0.00 0.00 0.01 58 1011.9
20260507124642 66 150 9.6 0.0 0.00 0.00 0.01 57 1011.8
20260507123127 66 129 8.7 0.0 0.00 0.00 0.01 57 1011.9
20260507121613 66 147 8.7 0.0 0.00 0.00 0.01 59 1011.8
20260507120055 66 103 8.7 0.0 0.00 0.00 0.01 59 1011.7
20260507114502 66 142 7.0 0.0 0.00 0.00 0.01 57 1012.0
20260507113135 66 177 6.1 0.0 0.00 0.00 0.01 58 1012.1
20260507111615 66 151 6.1 0.0 0.00 0.00 0.01 59 1012.2
20260507110019 66 155 6.1 0.0 0.00 0.00 0.01 61 1012.2
20260507104515 66 119 5.2 0.0 0.00 0.00 0.01 62 1012.3
20260507103005 66 157 4.3 0.0 0.00 0.00 0.01 63 1012.4
20260507101639 66 144 5.2 0.0 0.00 0.00 0.01 64 1012.6
20260507100113 66 138 3.5 0.0 0.00 0.00 0.01 67 1012.6
20260507094604 65 143 2.6 0.0 0.00 0.00 0.01 68 1012.6
20260507093011 65 136 3.5 0.0 0.00 0.00 0.01 69 1012.6
20260507091503 64 182 3.5 0.0 0.00 0.00 0.01 69 1012.5
20260507090128 64 246 2.6 0.0 0.00 0.00 0.01 70 1012.5
20260507084608 64 244 1.7 0.0 0.00 0.00 0.01 70 1012.5
20260507083002 63 166 1.7 0.0 0.00 0.00 0.01 74 1012.7
20260507081629 62 126 1.7 0.0 0.00 0.00 0.01 77 1012.8
20260507080117 60 290 0.0 0.0 0.00 0.00 0.01 83 1012.9
20260507074559 59 292 0.9 0.0 0.00 0.00 0.01 88 1012.9
20260507073003 56 226 1.7 0.0 0.00 0.00 0.01 89 1012.8
20260507071641 55 228 0.9 0.0 0.00 0.00 0.01 89 1012.8
20260507070119 54 245 1.7 0.0 0.00 0.00 0.01 89 1012.8
20260507064618 53 38 1.7 0.0 0.00 0.00 0.01 89 1012.7
20260507063016 52 222 0.9 0.0 0.00 0.00 0.01 90 1012.7
20260507061503 51 234 1.7 0.0 0.00 0.00 0.01 90 1012.6
20260507060131 50 243 0.9 0.0 0.00 0.00 0.01 90 1012.4
20260507054610 49 217 0.0 0.0 0.00 0.00 0.01 90 1012.4
20260507053010 48 360 0.9 0.0 0.00 0.00 0.01 90 1012.4
20260507051503 48 240 0.0 0.0 0.00 0.00 0.01 90 1012.2
20260507050132 48 246 1.7 0.0 0.00 0.00 0.01 90 1012.3
20260507044622 48 355 0.9 0.0 0.00 0.00 0.01 90 1012.1
20260507043104 48 355 0.9 0.0 0.00 0.00 0.01 90 1012.2
20260507041610 49 355 0.0 0.0 0.00 0.00 0.01 90 1012.1
20260507040008 49 355 0.0 0.0 0.00 0.00 0.01 89 1012.2
20260507034638 50 355 0.9 0.0 0.00 0.00 0.01 90 1012.0
20260507033121 50 355 0.9 0.0 0.00 0.00 0.00 89 1011.8
20260507031606 50 355 0.0 0.0 0.00 0.00 0.00 89 1012.0
20260507030016 51 355 0.0 0.0 0.00 0.00 0.00 89 1012.0
20260507024508 51 355 0.0 0.0 0.00 0.00 0.00 89 1012.0
20260507023143 51 355 0.0 0.0 0.00 0.00 0.00 89 1012.0
20260507021628 52 355 0.0 0.0 0.00 0.00 0.00 89 1012.0
20260507014523 53 355 0.0 0.0 0.00 0.00 0.00 89 1012.1
20260507013143 53 355 0.0 0.0 0.00 0.00 0.00 89 1012.2
20260507011618 53 355 0.0 0.0 0.00 0.00 0.00 89 1012.2
20260507010056 53 355 0.0 0.0 0.00 0.00 0.00 89 1012.4
20260507004516 54 355 0.0 0.0 0.00 0.00 0.00 89 1012.6
20260507003141 53 355 0.9 0.0 0.00 0.00 0.00 89 1012.6
20260507001623 54 355 0.0 0.0 0.00 0.00 0.00 89 1012.7
20260507000112 54 355 0.9 0.0 0.00 0.00 0.00 89 1012.8
20260506234513 54 355 0.9 0.0 0.00 0.00 0.00 89 1012.7
20260506233137 54 355 0.9 0.0 0.00 0.00 0.00 89 1012.8
20260506231612 54 355 0.9 0.0 0.00 0.00 0.00 88 1012.9
20260506230009 55 360 0.9 0.0 0.00 0.00 0.00 88 1012.9
20260506224627 55 360 1.7 0.0 0.00 0.00 0.00 88 1012.8
20260506223138 55 123 1.7 0.0 0.00 0.00 0.00 88 1012.9
20260506221514 56 117 1.7 0.0 0.00 0.00 0.00 87 1012.9
20260506220118 56 69 0.0 0.0 0.00 0.00 0.00 87 1012.9
20260506214650 56 69 0.9 0.0 0.00 0.00 0.01 87 1013.0
20260506213021 56 68 0.9 0.0 0.00 0.00 0.01 87 1013.1
20260506211626 57 68 2.6 0.0 0.00 0.00 0.01 87 1012.9
20260506210004 57 47 0.9 0.0 0.00 0.00 0.01 87 1013.0
20260506204618 57 9 2.6 0.0 0.00 0.00 0.01 87 1012.8
20260506203148 57 74 2.6 0.0 0.00 0.00 0.01 87 1012.6
20260506201610 58 57 2.6 0.0 0.00 0.00 0.01 87 1012.5
20260506200152 58 67 2.6 0.0 0.00 0.00 0.01 86 1012.2
20260506194620 58 40 3.5 0.0 0.00 0.00 0.01 86 1011.9
20260506193015 59 11 1.7 0.0 0.00 0.00 0.01 85 1011.8
20260506191513 60 346 0.9 0.0 0.00 0.00 0.01 85 1011.5
20260506190138 59 191 0.9 0.0 0.00 0.00 0.01 84 1011.2
20260506184624 60 171 2.6 0.0 0.00 0.00 0.01 84 1010.8